owner,sensor,date,latitude,longitude,relative_humidity,qcFlag 
COMPS,ioos:station:USF.COMPS:C13:1,2019-03-17T15:55:00Z,26.0630,-83.0730,91.76,1111122 
COMPS,ioos:station:USF.COMPS:C13:1,2019-03-17T16:35:00Z,26.0630,-83.0730,90.98,1111122 
COMPS,ioos:station:USF.COMPS:C13:1,2019-03-17T17:05:00Z,26.0630,-83.0730,90.37,1111122 
COMPS,ioos:station:USF.COMPS:C13:1,2019-03-17T17:35:00Z,26.0630,-83.0730,90.29,1111122 
COMPS,ioos:station:USF.COMPS:C13:1,2019-03-17T18:05:00Z,26.0630,-83.0730,90.6,1111122 
COMPS,ioos:station:USF.COMPS:C13:1,2019-03-17T18:35:00Z,26.0630,-83.0730,90.3,1111122 
COMPS,ioos:station:USF.COMPS:C13:1,2019-03-17T19:05:00Z,26.0630,-83.0730,89.53,1111122 
COMPS,ioos:station:USF.COMPS:C13:1,2019-03-17T19:35:00Z,26.0630,-83.0730,89.1,1111122 
COMPS,ioos:station:USF.COMPS:C13:1,2019-03-17T20:05:00Z,26.0630,-83.0730,89.31,1111122 
COMPS,ioos:station:USF.COMPS:C13:1,2019-03-17T20:35:00Z,26.0630,-83.0730,89.63,1111122 
COMPS,ioos:station:USF.COMPS:C13:1,2019-03-17T21:05:00Z,26.0630,-83.0730,89.62,1111122 
COMPS,ioos:station:USF.COMPS:C13:1,2019-03-17T21:35:00Z,26.0630,-83.0730,89.52,1111122 
COMPS,ioos:station:USF.COMPS:C13:1,2019-03-17T22:05:00Z,26.0630,-83.0730,90.62,1111122 
COMPS,ioos:station:USF.COMPS:C13:1,2019-03-17T22:35:00Z,26.0630,-83.0730,91.05,1111122 
COMPS,ioos:station:USF.COMPS:C13:1,2019-03-17T23:05:00Z,26.0630,-83.0730,91.51,1111122 
COMPS,ioos:station:USF.COMPS:C13:1,2019-03-17T23:35:00Z,26.0630,-83.0730,91.21,1111122 
COMPS,ioos:station:USF.COMPS:C13:1,2019-03-18T00:05:00Z,26.0630,-83.0730,90.8,1111122 
COMPS,ioos:station:USF.COMPS:C13:1,2019-03-18T00:35:00Z,26.0630,-83.0730,90.74,1111122 
COMPS,ioos:station:USF.COMPS:C13:1,2019-03-18T02:05:00Z,26.0630,-83.0730,89.61,1111122 
COMPS,ioos:station:USF.COMPS:C13:1,2019-03-18T02:35:00Z,26.0630,-83.0730,88.34,1111122 
COMPS,ioos:station:USF.COMPS:C13:1,2019-03-18T03:05:00Z,26.0630,-83.0730,87.43,1111122 
COMPS,ioos:station:USF.COMPS:C13:1,2019-03-18T03:35:00Z,26.0630,-83.0730,86.61,1111122 
COMPS,ioos:station:USF.COMPS:C13:1,2019-03-18T04:05:00Z,26.0630,-83.0730,86.82,1111122 
COMPS,ioos:station:USF.COMPS:C13:1,2019-03-18T04:35:00Z,26.0630,-83.0730,87.43,1111122 
COMPS,ioos:station:USF.COMPS:C13:1,2019-03-18T06:05:00Z,26.0630,-83.0730,87.4,1111122 
COMPS,ioos:station:USF.COMPS:C13:1,2019-03-18T06:35:00Z,26.0630,-83.0730,86.88,1111122 
COMPS,ioos:station:USF.COMPS:C13:1,2019-03-18T07:05:00Z,26.0630,-83.0730,86.6,1111122 
COMPS,ioos:station:USF.COMPS:C13:1,2019-03-18T07:35:00Z,26.0630,-83.0730,87.55,1111122 
COMPS,ioos:station:USF.COMPS:C13:1,2019-03-18T08:05:00Z,26.0630,-83.0730,86.97,1111122 
COMPS,ioos:station:USF.COMPS:C13:1,2019-03-18T08:35:00Z,26.0630,-83.0730,85.55,1111122 
COMPS,ioos:station:USF.COMPS:C13:1,2019-03-18T09:05:00Z,26.0630,-83.0730,83.81,1111122 
COMPS,ioos:station:USF.COMPS:C13:1,2019-03-18T09:35:00Z,26.0630,-83.0730,84.98,1111122 
COMPS,ioos:station:USF.COMPS:C13:1,2019-03-18T10:05:00Z,26.0630,-83.0730,86.07,1111122 
COMPS,ioos:station:USF.COMPS:C13:1,2019-03-18T10:35:00Z,26.0630,-83.0730,87.39,1111122 
COMPS,ioos:station:USF.COMPS:C13:1,2019-03-18T11:05:00Z,26.0630,-83.0730,87.7,1111122 
COMPS,ioos:station:USF.COMPS:C13:1,2019-03-18T11:35:00Z,26.0630,-83.0730,88.34,1111122 
COMPS,ioos:station:USF.COMPS:C13:1,2019-03-18T12:05:00Z,26.0630,-83.0730,88.43,1111122 
COMPS,ioos:station:USF.COMPS:C13:1,2019-03-18T12:35:00Z,26.0630,-83.0730,87.97,1111122 
COMPS,ioos:station:USF.COMPS:C13:1,2019-03-18T13:05:00Z,26.0630,-83.0730,87.5,1111122 
COMPS,ioos:station:USF.COMPS:C13:1,2019-03-18T13:35:00Z,26.0630,-83.0730,85.51,1111122 
COMPS,ioos:station:USF.COMPS:C13:1,2019-03-18T14:05:00Z,26.0630,-83.0730,86.38,1111122 
COMPS,ioos:station:USF.COMPS:C13:1,2019-03-18T14:35:00Z,26.0630,-83.0730,85.59,1111122 
COMPS,ioos:station:USF.COMPS:C13:1,2019-03-18T15:05:00Z,26.0630,-83.0730,85.35,1111122 
COMPS,ioos:station:USF.COMPS:C13:1,2019-03-18T15:35:00Z,26.0630,-83.0730,85.54,1111122 
COMPS,ioos:station:USF.COMPS:C13:1,2019-03-18T16:05:00Z,26.0630,-83.0730,87.3,1111122 
COMPS,ioos:station:USF.COMPS:C13:1,2019-03-18T16:35:00Z,26.0630,-83.0730,87.43,1111122 
COMPS,ioos:station:USF.COMPS:C13:1,2019-03-18T17:05:00Z,26.0630,-83.0730,87.41,1111122 
COMPS,ioos:station:USF.COMPS:C13:1,2019-03-18T17:35:00Z,26.0630,-83.0730,86.54,1111122 
COMPS,ioos:station:USF.COMPS:C13:1,2019-03-18T18:05:00Z,26.0630,-83.0730,86.21,1111122 
COMPS,ioos:station:USF.COMPS:C13:1,2019-03-18T18:35:00Z,26.0630,-83.0730,86.66,1111122 
COMPS,ioos:station:USF.COMPS:C13:1,2019-03-18T19:05:00Z,26.0630,-83.0730,86.53,1111122 
COMPS,ioos:station:USF.COMPS:C13:1,2019-03-18T19:35:00Z,26.0630,-83.0730,86.72,1111122 
COMPS,ioos:station:USF.COMPS:C13:1,2019-03-18T20:05:00Z,26.0630,-83.0730,86.72,1111122 
COMPS,ioos:station:USF.COMPS:C13:1,2019-03-18T20:35:00Z,26.0630,-83.0730,86.67,1111122 
COMPS,ioos:station:USF.COMPS:C13:1,2019-03-18T21:05:00Z,26.0630,-83.0730,86.72,1111122 
COMPS,ioos:station:USF.COMPS:C13:1,2019-03-18T21:35:00Z,26.0630,-83.0730,86.73,1111122 
COMPS,ioos:station:USF.COMPS:C13:1,2019-03-18T22:05:00Z,26.0630,-83.0730,86.74,1111122 
COMPS,ioos:station:USF.COMPS:C13:1,2019-03-18T22:35:00Z,26.0630,-83.0730,86.21,1111122 
COMPS,ioos:station:USF.COMPS:C13:1,2019-03-18T23:05:00Z,26.0630,-83.0730,84.62,1111122 
COMPS,ioos:station:USF.COMPS:C13:1,2019-03-18T23:35:00Z,26.0630,-83.0730,83.94,1111122 
COMPS,ioos:station:USF.COMPS:C13:1,2019-03-19T01:05:00Z,26.0630,-83.0730,84.7,1111122 
COMPS,ioos:station:USF.COMPS:C13:1,2019-03-19T01:35:00Z,26.0630,-83.0730,83.77,1111122 
COMPS,ioos:station:USF.COMPS:C13:1,2019-03-19T02:05:00Z,26.0630,-83.0730,83.17,1111122 
COMPS,ioos:station:USF.COMPS:C13:1,2019-03-19T02:35:00Z,26.0630,-83.0730,82.16,1111122 
COMPS,ioos:station:USF.COMPS:C13:1,2019-03-19T03:05:00Z,26.0630,-83.0730,84.24,1111122 
COMPS,ioos:station:USF.COMPS:C13:1,2019-03-19T03:35:00Z,26.0630,-83.0730,87.6,1111122 
COMPS,ioos:station:USF.COMPS:C13:1,2019-03-19T04:05:00Z,26.0630,-83.0730,88.37,1111122 
COMPS,ioos:station:USF.COMPS:C13:1,2019-03-19T04:35:00Z,26.0630,-83.0730,89.48,1111122 
COMPS,ioos:station:USF.COMPS:C13:1,2019-03-19T05:05:00Z,26.0630,-83.0730,91.05,1111122 
COMPS,ioos:station:USF.COMPS:C13:1,2019-03-19T05:35:00Z,26.0630,-83.0730,91.84,1111122 
COMPS,ioos:station:USF.COMPS:C13:1,2019-03-19T06:05:00Z,26.0630,-83.0730,92.79,1111122 
COMPS,ioos:station:USF.COMPS:C13:1,2019-03-19T06:35:00Z,26.0630,-83.0730,93.52,1111122 
COMPS,ioos:station:USF.COMPS:C13:1,2019-03-19T07:05:00Z,26.0630,-83.0730,93.24,1111122 
COMPS,ioos:station:USF.COMPS:C13:1,2019-03-19T07:35:00Z,26.0630,-83.0730,93.29,1111122 
COMPS,ioos:station:USF.COMPS:C13:1,2019-03-19T08:05:00Z,26.0630,-83.0730,94.43,1111122 
COMPS,ioos:station:USF.COMPS:C13:1,2019-03-19T08:35:00Z,26.0630,-83.0730,94.43,1111122 
COMPS,ioos:station:USF.COMPS:C13:1,2019-03-19T09:05:00Z,26.0630,-83.0730,94.06,1111122 
COMPS,ioos:station:USF.COMPS:C13:1,2019-03-19T09:35:00Z,26.0630,-83.0730,93.88,1111122 
COMPS,ioos:station:USF.COMPS:C13:1,2019-03-19T10:05:00Z,26.0630,-83.0730,93.71,1111122 
COMPS,ioos:station:USF.COMPS:C13:1,2019-03-19T10:35:00Z,26.0630,-83.0730,93.58,1111122 
COMPS,ioos:station:USF.COMPS:C13:1,2019-03-19T11:05:00Z,26.0630,-83.0730,93.14,1111122 
COMPS,ioos:station:USF.COMPS:C13:1,2019-03-19T11:35:00Z,26.0630,-83.0730,92.9,1111122 
COMPS,ioos:station:USF.COMPS:C13:1,2019-03-19T12:05:00Z,26.0630,-83.0730,92.3,1111122 
COMPS,ioos:station:USF.COMPS:C13:1,2019-03-19T12:35:00Z,26.0630,-83.0730,91.57,1111122 
COMPS,ioos:station:USF.COMPS:C13:1,2019-03-19T13:05:00Z,26.0630,-83.0730,91.73,1111122 
COMPS,ioos:station:USF.COMPS:C13:1,2019-03-19T13:35:00Z,26.0630,-83.0730,91.7,1111122 
COMPS,ioos:station:USF.COMPS:C13:1,2019-03-19T14:05:00Z,26.0630,-83.0730,91.86,1111122 
COMPS,ioos:station:USF.COMPS:C13:1,2019-03-19T14:35:00Z,26.0630,-83.0730,91.95,1111122 
COMPS,ioos:station:USF.COMPS:C13:1,2019-03-19T15:05:00Z,26.0630,-83.0730,91.12,1111122 
COMPS,ioos:station:USF.COMPS:C13:1,2019-03-19T15:35:00Z,26.0630,-83.0730,90.5,1111122 
COMPS,ioos:station:USF.COMPS:C13:1,2019-03-19T16:05:00Z,26.0630,-83.0730,89.45,1111122 
COMPS,ioos:station:USF.COMPS:C13:1,2019-03-19T16:35:00Z,26.0630,-83.0730,89.38,1111122 
COMPS,ioos:station:USF.COMPS:C13:1,2019-03-19T17:05:00Z,26.0630,-83.0730,88.74,1111122 
COMPS,ioos:station:USF.COMPS:C13:1,2019-03-19T17:35:00Z,26.0630,-83.0730,88.39,1111122 
COMPS,ioos:station:USF.COMPS:C13:1,2019-03-19T18:05:00Z,26.0630,-83.0730,88.86,1111122 
COMPS,ioos:station:USF.COMPS:C13:1,2019-03-19T18:35:00Z,26.0630,-83.0730,88.89,1111122 
COMPS,ioos:station:USF.COMPS:C13:1,2019-03-19T19:05:00Z,26.0630,-83.0730,88.39,1111122 
COMPS,ioos:station:USF.COMPS:C13:1,2019-03-19T19:35:00Z,26.0630,-83.0730,87.65,1111122 
COMPS,ioos:station:USF.COMPS:C13:1,2019-03-19T20:05:00Z,26.0630,-83.0730,87.03,1111122 
COMPS,ioos:station:USF.COMPS:C13:1,2019-03-19T20:35:00Z,26.0630,-83.0730,86.81,1111122 
COMPS,ioos:station:USF.COMPS:C13:1,2019-03-19T21:05:00Z,26.0630,-83.0730,87.65,1111122 
COMPS,ioos:station:USF.COMPS:C13:1,2019-03-19T21:35:00Z,26.0630,-83.0730,88.15,1111122 
COMPS,ioos:station:USF.COMPS:C13:1,2019-03-19T22:05:00Z,26.0630,-83.0730,88.59,1111122 
COMPS,ioos:station:USF.COMPS:C13:1,2019-03-19T22:35:00Z,26.0630,-83.0730,88.87,1111122 
COMPS,ioos:station:USF.COMPS:C13:1,2019-03-19T23:05:00Z,26.0630,-83.0730,89.73,1111122 
COMPS,ioos:station:USF.COMPS:C13:1,2019-03-19T23:35:00Z,26.0630,-83.0730,89.71,1111122 
COMPS,ioos:station:USF.COMPS:C13:1,2019-03-20T00:05:00Z,26.0630,-83.0730,87.78,1111122 
COMPS,ioos:station:USF.COMPS:C13:1,2019-03-20T00:35:00Z,26.0630,-83.0730,85.01,1111122 
COMPS,ioos:station:USF.COMPS:C13:1,2019-03-20T02:05:00Z,26.0630,-83.0730,81.82,1111122 
COMPS,ioos:station:USF.COMPS:C13:1,2019-03-20T02:35:00Z,26.0630,-83.0730,81.11,1111122 
COMPS,ioos:station:USF.COMPS:C13:1,2019-03-20T03:05:00Z,26.0630,-83.0730,81.02,1111122 
COMPS,ioos:station:USF.COMPS:C13:1,2019-03-20T03:35:00Z,26.0630,-83.0730,82.18,1111122 
COMPS,ioos:station:USF.COMPS:C13:1,2019-03-20T04:05:00Z,26.0630,-83.0730,81.8,1111122 
COMPS,ioos:station:USF.COMPS:C13:1,2019-03-20T04:35:00Z,26.0630,-83.0730,80.91,1111122 
COMPS,ioos:station:USF.COMPS:C13:1,2019-03-20T05:05:00Z,26.0630,-83.0730,79.65,1111122 
COMPS,ioos:station:USF.COMPS:C13:1,2019-03-20T05:35:00Z,26.0630,-83.0730,79.27,1111122 
COMPS,ioos:station:USF.COMPS:C13:1,2019-03-20T06:05:00Z,26.0630,-83.0730,80.34,1111122 
COMPS,ioos:station:USF.COMPS:C13:1,2019-03-20T06:35:00Z,26.0630,-83.0730,81.12,1111122 
COMPS,ioos:station:USF.COMPS:C13:1,2019-03-20T07:05:00Z,26.0630,-83.0730,81.45,1111122 
COMPS,ioos:station:USF.COMPS:C13:1,2019-03-20T07:35:00Z,26.0630,-83.0730,82.25,1111122 
COMPS,ioos:station:USF.COMPS:C13:1,2019-03-20T08:05:00Z,26.0630,-83.0730,82.88,1111122 
COMPS,ioos:station:USF.COMPS:C13:1,2019-03-20T08:35:00Z,26.0630,-83.0730,83.07,1111122 
COMPS,ioos:station:USF.COMPS:C13:1,2019-03-20T10:05:00Z,26.0630,-83.0730,83.71,1111122 
COMPS,ioos:station:USF.COMPS:C13:1,2019-03-20T10:35:00Z,26.0630,-83.0730,84.92,1111122 
COMPS,ioos:station:USF.COMPS:C13:1,2019-03-20T11:05:00Z,26.0630,-83.0730,86.36,1111122 
COMPS,ioos:station:USF.COMPS:C13:1,2019-03-20T11:35:00Z,26.0630,-83.0730,86.37,1111122 
COMPS,ioos:station:USF.COMPS:C13:1,2019-03-20T12:05:00Z,26.0630,-83.0730,85.91,1111122 
COMPS,ioos:station:USF.COMPS:C13:1,2019-03-20T12:35:00Z,26.0630,-83.0730,84.84,1111122 
COMPS,ioos:station:USF.COMPS:C13:1,2019-03-20T13:05:00Z,26.0630,-83.0730,84.92,1111122 
COMPS,ioos:station:USF.COMPS:C13:1,2019-03-20T13:35:00Z,26.0630,-83.0730,84.74,1111122 
COMPS,ioos:station:USF.COMPS:C13:1,2019-03-20T14:05:00Z,26.0630,-83.0730,84.05,1111122 
COMPS,ioos:station:USF.COMPS:C13:1,2019-03-20T14:35:00Z,26.0630,-83.0730,84.97,1111122 
COMPS,ioos:station:USF.COMPS:C13:1,2019-03-20T15:05:00Z,26.0630,-83.0730,85.21,1111122 
COMPS,ioos:station:USF.COMPS:C13:1,2019-03-20T15:35:00Z,26.0630,-83.0730,84.94,1111122 
COMPS,ioos:station:USF.COMPS:C13:1,2019-03-20T16:05:00Z,26.0630,-83.0730,85.33,1111122 
COMPS,ioos:station:USF.COMPS:C13:1,2019-03-20T16:35:00Z,26.0630,-83.0730,85.95,1111122 
COMPS,ioos:station:USF.COMPS:C13:1,2019-03-20T17:05:00Z,26.0630,-83.0730,86.0,1111122 
COMPS,ioos:station:USF.COMPS:C13:1,2019-03-20T17:35:00Z,26.0630,-83.0730,86.96,1111122 
COMPS,ioos:station:USF.COMPS:C13:1,2019-03-20T18:05:00Z,26.0630,-83.0730,86.95,1111122 
COMPS,ioos:station:USF.COMPS:C13:1,2019-03-20T18:35:00Z,26.0630,-83.0730,85.69,1111122 
COMPS,ioos:station:USF.COMPS:C13:1,2019-03-20T19:05:00Z,26.0630,-83.0730,85.0,1111122 
COMPS,ioos:station:USF.COMPS:C13:1,2019-03-20T19:35:00Z,26.0630,-83.0730,84.9,1111122 
COMPS,ioos:station:USF.COMPS:C13:1,2019-03-20T20:05:00Z,26.0630,-83.0730,83.23,1111122 
COMPS,ioos:station:USF.COMPS:C13:1,2019-03-20T20:35:00Z,26.0630,-83.0730,82.99,1111122 
COMPS,ioos:station:USF.COMPS:C13:1,2019-03-20T21:05:00Z,26.0630,-83.0730,82.86,1111122 
COMPS,ioos:station:USF.COMPS:C13:1,2019-03-20T21:35:00Z,26.0630,-83.0730,82.69,1111122 
COMPS,ioos:station:USF.COMPS:C13:1,2019-03-20T22:05:00Z,26.0630,-83.0730,82.12,1111122 
COMPS,ioos:station:USF.COMPS:C13:1,2019-03-20T22:35:00Z,26.0630,-83.0730,81.79,1111122 
COMPS,ioos:station:USF.COMPS:C13:1,2019-03-20T23:05:00Z,26.0630,-83.0730,81.29,1111122 
COMPS,ioos:station:USF.COMPS:C13:1,2019-03-20T23:35:00Z,26.0630,-83.0730,81.16,1111122 
COMPS,ioos:station:USF.COMPS:C13:1,2019-03-21T00:05:00Z,26.0630,-83.0730,81.0,1111122 
COMPS,ioos:station:USF.COMPS:C13:1,2019-03-21T00:35:00Z,26.0630,-83.0730,80.4,1111122 
COMPS,ioos:station:USF.COMPS:C13:1,2019-03-21T01:05:00Z,26.0630,-83.0730,79.49,1111122 
COMPS,ioos:station:USF.COMPS:C13:1,2019-03-21T01:35:00Z,26.0630,-83.0730,79.53,1111122 
COMPS,ioos:station:USF.COMPS:C13:1,2019-03-21T02:05:00Z,26.0630,-83.0730,78.93,1111122 
COMPS,ioos:station:USF.COMPS:C13:1,2019-03-21T02:35:00Z,26.0630,-83.0730,78.29,1111122 
COMPS,ioos:station:USF.COMPS:C13:1,2019-03-21T03:05:00Z,26.0630,-83.0730,78.2,1111122 
COMPS,ioos:station:USF.COMPS:C13:1,2019-03-21T03:35:00Z,26.0630,-83.0730,78.26,1111122 
COMPS,ioos:station:USF.COMPS:C13:1,2019-03-21T04:05:00Z,26.0630,-83.0730,78.35,1111122 
COMPS,ioos:station:USF.COMPS:C13:1,2019-03-21T04:35:00Z,26.0630,-83.0730,77.92,1111122 
COMPS,ioos:station:USF.COMPS:C13:1,2019-03-21T05:05:00Z,26.0630,-83.0730,78.2,1111122 
COMPS,ioos:station:USF.COMPS:C13:1,2019-03-21T05:35:00Z,26.0630,-83.0730,79.3,1111122 
COMPS,ioos:station:USF.COMPS:C13:1,2019-03-21T06:05:00Z,26.0630,-83.0730,80.01,1111122 
COMPS,ioos:station:USF.COMPS:C13:1,2019-03-21T06:35:00Z,26.0630,-83.0730,80.16,1111122 
COMPS,ioos:station:USF.COMPS:C13:1,2019-03-21T07:05:00Z,26.0630,-83.0730,80.1,1111122 
COMPS,ioos:station:USF.COMPS:C13:1,2019-03-21T07:35:00Z,26.0630,-83.0730,79.78,1111122 
COMPS,ioos:station:USF.COMPS:C13:1,2019-03-21T08:05:00Z,26.0630,-83.0730,79.8,1111122 
COMPS,ioos:station:USF.COMPS:C13:1,2019-03-21T08:35:00Z,26.0630,-83.0730,79.4,1111122 
COMPS,ioos:station:USF.COMPS:C13:1,2019-03-21T09:05:00Z,26.0630,-83.0730,79.23,1111122 
COMPS,ioos:station:USF.COMPS:C13:1,2019-03-21T09:35:00Z,26.0630,-83.0730,78.56,1111122 
COMPS,ioos:station:USF.COMPS:C13:1,2019-03-21T10:05:00Z,26.0630,-83.0730,77.9,1111122 
COMPS,ioos:station:USF.COMPS:C13:1,2019-03-21T10:35:00Z,26.0630,-83.0730,78.44,1111122 
COMPS,ioos:station:USF.COMPS:C13:1,2019-03-21T11:05:00Z,26.0630,-83.0730,77.54,1111122 
COMPS,ioos:station:USF.COMPS:C13:1,2019-03-21T11:35:00Z,26.0630,-83.0730,76.35,1111122 
COMPS,ioos:station:USF.COMPS:C13:1,2019-03-21T12:05:00Z,26.0630,-83.0730,75.12,1111122 
COMPS,ioos:station:USF.COMPS:C13:1,2019-03-21T12:35:00Z,26.0630,-83.0730,72.86,1111122 
COMPS,ioos:station:USF.COMPS:C13:1,2019-03-21T13:05:00Z,26.0630,-83.0730,73.71,1111122 
COMPS,ioos:station:USF.COMPS:C13:1,2019-03-21T13:35:00Z,26.0630,-83.0730,72.84,1111122 
COMPS,ioos:station:USF.COMPS:C13:1,2019-03-21T14:05:00Z,26.0630,-83.0730,69.89,1111122 
COMPS,ioos:station:USF.COMPS:C13:1,2019-03-21T14:35:00Z,26.0630,-83.0730,70.82,1111122 
COMPS,ioos:station:USF.COMPS:C13:1,2019-03-21T15:05:00Z,26.0630,-83.0730,70.55,1111122 
COMPS,ioos:station:USF.COMPS:C13:1,2019-03-21T15:35:00Z,26.0630,-83.0730,70.26,1111122 
COMPS,ioos:station:USF.COMPS:C13:1,2019-03-21T16:05:00Z,26.0630,-83.0730,69.48,1111122 
COMPS,ioos:station:USF.COMPS:C13:1,2019-03-21T16:35:00Z,26.0630,-83.0730,66.73,1111122 
COMPS,ioos:station:USF.COMPS:C13:1,2019-03-21T17:05:00Z,26.0630,-83.0730,65.63,1111122 
COMPS,ioos:station:USF.COMPS:C13:1,2019-03-21T17:35:00Z,26.0630,-83.0730,65.64,1111122 
COMPS,ioos:station:USF.COMPS:C13:1,2019-03-21T18:05:00Z,26.0630,-83.0730,64.0,1111122 
COMPS,ioos:station:USF.COMPS:C13:1,2019-03-21T18:35:00Z,26.0630,-83.0730,63.66,1111122 
COMPS,ioos:station:USF.COMPS:C13:1,2019-03-21T19:05:00Z,26.0630,-83.0730,63.97,1111122 
COMPS,ioos:station:USF.COMPS:C13:1,2019-03-21T19:35:00Z,26.0630,-83.0730,66.56,1111122 
COMPS,ioos:station:USF.COMPS:C13:1,2019-03-21T20:05:00Z,26.0630,-83.0730,65.65,1111122 
COMPS,ioos:station:USF.COMPS:C13:1,2019-03-21T20:35:00Z,26.0630,-83.0730,65.2,1111122 
COMPS,ioos:station:USF.COMPS:C13:1,2019-03-21T21:05:00Z,26.0630,-83.0730,65.1,1111122 
COMPS,ioos:station:USF.COMPS:C13:1,2019-03-21T21:35:00Z,26.0630,-83.0730,65.29,1111122 
COMPS,ioos:station:USF.COMPS:C13:1,2019-03-21T22:05:00Z,26.0630,-83.0730,62.53,1111122 
COMPS,ioos:station:USF.COMPS:C13:1,2019-03-21T22:35:00Z,26.0630,-83.0730,65.13,1111122 
COMPS,ioos:station:USF.COMPS:C13:1,2019-03-21T23:05:00Z,26.0630,-83.0730,61.19,1111122 
COMPS,ioos:station:USF.COMPS:C13:1,2019-03-21T23:35:00Z,26.0630,-83.0730,62.78,1111122 
COMPS,ioos:station:USF.COMPS:C13:1,2019-03-22T00:05:00Z,26.0630,-83.0730,66.15,1111122 
COMPS,ioos:station:USF.COMPS:C13:1,2019-03-22T00:35:00Z,26.0630,-83.0730,67.69,1111122 
COMPS,ioos:station:USF.COMPS:C13:1,2019-03-22T02:05:00Z,26.0630,-83.0730,64.43,1111122 
COMPS,ioos:station:USF.COMPS:C13:1,2019-03-22T02:35:00Z,26.0630,-83.0730,64.32,1111122 
COMPS,ioos:station:USF.COMPS:C13:1,2019-03-22T03:05:00Z,26.0630,-83.0730,63.46,1111122 
COMPS,ioos:station:USF.COMPS:C13:1,2019-03-22T03:35:00Z,26.0630,-83.0730,63.0,1111122 
COMPS,ioos:station:USF.COMPS:C13:1,2019-03-22T04:05:00Z,26.0630,-83.0730,61.32,1111122 
COMPS,ioos:station:USF.COMPS:C13:1,2019-03-22T04:35:00Z,26.0630,-83.0730,60.97,1111122 
COMPS,ioos:station:USF.COMPS:C13:1,2019-03-22T05:05:00Z,26.0630,-83.0730,60.4,1111122 
COMPS,ioos:station:USF.COMPS:C13:1,2019-03-22T05:35:00Z,26.0630,-83.0730,61.93,1111122 
COMPS,ioos:station:USF.COMPS:C13:1,2019-03-22T06:05:00Z,26.0630,-83.0730,62.33,1111122 
COMPS,ioos:station:USF.COMPS:C13:1,2019-03-22T06:35:00Z,26.0630,-83.0730,69.22,1111122 
COMPS,ioos:station:USF.COMPS:C13:1,2019-03-22T07:05:00Z,26.0630,-83.0730,65.76,1111122 
COMPS,ioos:station:USF.COMPS:C13:1,2019-03-22T07:35:00Z,26.0630,-83.0730,63.51,1111122 
COMPS,ioos:station:USF.COMPS:C13:1,2019-03-22T08:05:00Z,26.0630,-83.0730,64.9,1111122 
COMPS,ioos:station:USF.COMPS:C13:1,2019-03-22T08:35:00Z,26.0630,-83.0730,64.84,1111122 
COMPS,ioos:station:USF.COMPS:C13:1,2019-03-22T09:05:00Z,26.0630,-83.0730,64.33,1111122 
COMPS,ioos:station:USF.COMPS:C13:1,2019-03-22T09:35:00Z,26.0630,-83.0730,67.28,1111122 
COMPS,ioos:station:USF.COMPS:C13:1,2019-03-22T10:05:00Z,26.0630,-83.0730,64.3,1111122 
COMPS,ioos:station:USF.COMPS:C13:1,2019-03-22T10:35:00Z,26.0630,-83.0730,72.55,1111122 
COMPS,ioos:station:USF.COMPS:C13:1,2019-03-22T11:05:00Z,26.0630,-83.0730,65.18,1111122 
COMPS,ioos:station:USF.COMPS:C13:1,2019-03-22T11:35:00Z,26.0630,-83.0730,62.53,1111122 
COMPS,ioos:station:USF.COMPS:C13:1,2019-03-22T12:05:00Z,26.0630,-83.0730,62.05,1111122 
COMPS,ioos:station:USF.COMPS:C13:1,2019-03-22T12:35:00Z,26.0630,-83.0730,58.02,1111122 
COMPS,ioos:station:USF.COMPS:C13:1,2019-03-22T13:05:00Z,26.0630,-83.0730,59.33,1111122 
COMPS,ioos:station:USF.COMPS:C13:1,2019-03-22T13:35:00Z,26.0630,-83.0730,55.89,1111122 
COMPS,ioos:station:USF.COMPS:C13:1,2019-03-22T14:05:00Z,26.0630,-83.0730,55.4,1111122 
COMPS,ioos:station:USF.COMPS:C13:1,2019-03-22T14:35:00Z,26.0630,-83.0730,54.08,1111122 
COMPS,ioos:station:USF.COMPS:C13:1,2019-03-22T15:05:00Z,26.0630,-83.0730,55.42,1111122 
COMPS,ioos:station:USF.COMPS:C13:1,2019-03-22T15:35:00Z,26.0630,-83.0730,53.88,1111122 
COMPS,ioos:station:USF.COMPS:C13:1,2019-03-22T16:05:00Z,26.0630,-83.0730,55.68,1111122 
COMPS,ioos:station:USF.COMPS:C13:1,2019-03-22T16:35:00Z,26.0630,-83.0730,55.85,1111122 
COMPS,ioos:station:USF.COMPS:C13:1,2019-03-22T17:05:00Z,26.0630,-83.0730,57.34,1111122 
COMPS,ioos:station:USF.COMPS:C13:1,2019-03-22T17:35:00Z,26.0630,-83.0730,55.32,1111122 
COMPS,ioos:station:USF.COMPS:C13:1,2019-03-22T18:05:00Z,26.0630,-83.0730,56.44,1111122 
COMPS,ioos:station:USF.COMPS:C13:1,2019-03-22T18:35:00Z,26.0630,-83.0730,58.74,1111122 
COMPS,ioos:station:USF.COMPS:C13:1,2019-03-22T19:05:00Z,26.0630,-83.0730,57.28,1111122 
COMPS,ioos:station:USF.COMPS:C13:1,2019-03-22T19:35:00Z,26.0630,-83.0730,57.92,1111122 
COMPS,ioos:station:USF.COMPS:C13:1,2019-03-22T20:05:00Z,26.0630,-83.0730,57.36,1111122 
COMPS,ioos:station:USF.COMPS:C13:1,2019-03-22T20:35:00Z,26.0630,-83.0730,57.48,1111122 
COMPS,ioos:station:USF.COMPS:C13:1,2019-03-22T21:05:00Z,26.0630,-83.0730,57.26,1111122 
COMPS,ioos:station:USF.COMPS:C13:1,2019-03-22T21:35:00Z,26.0630,-83.0730,57.19,1111122 
COMPS,ioos:station:USF.COMPS:C13:1,2019-03-22T22:05:00Z,26.0630,-83.0730,56.96,1111122 
COMPS,ioos:station:USF.COMPS:C13:1,2019-03-22T22:35:00Z,26.0630,-83.0730,56.93,1111122 
COMPS,ioos:station:USF.COMPS:C13:1,2019-03-22T23:05:00Z,26.0630,-83.0730,55.35,1111122 
COMPS,ioos:station:USF.COMPS:C13:1,2019-03-22T23:35:00Z,26.0630,-83.0730,56.38,1111122 
COMPS,ioos:station:USF.COMPS:C13:1,2019-03-23T00:05:00Z,26.0630,-83.0730,57.8,1111122 
COMPS,ioos:station:USF.COMPS:C13:1,2019-03-23T00:35:00Z,26.0630,-83.0730,59.26,1111122 
COMPS,ioos:station:USF.COMPS:C13:1,2019-03-23T01:05:00Z,26.0630,-83.0730,61.0,1111122 
COMPS,ioos:station:USF.COMPS:C13:1,2019-03-23T01:35:00Z,26.0630,-83.0730,62.75,1111122 
COMPS,ioos:station:USF.COMPS:C13:1,2019-03-23T02:05:00Z,26.0630,-83.0730,64.39,1111122 
COMPS,ioos:station:USF.COMPS:C13:1,2019-03-23T02:35:00Z,26.0630,-83.0730,63.47,1111122 
COMPS,ioos:station:USF.COMPS:C13:1,2019-03-23T03:05:00Z,26.0630,-83.0730,65.1,1111122 
COMPS,ioos:station:USF.COMPS:C13:1,2019-03-23T03:35:00Z,26.0630,-83.0730,61.63,1111122 
COMPS,ioos:station:USF.COMPS:C13:1,2019-03-23T04:05:00Z,26.0630,-83.0730,63.78,1111122 
COMPS,ioos:station:USF.COMPS:C13:1,2019-03-23T04:35:00Z,26.0630,-83.0730,58.98,1111122 
COMPS,ioos:station:USF.COMPS:C13:1,2019-03-23T05:05:00Z,26.0630,-83.0730,55.68,1111122 
COMPS,ioos:station:USF.COMPS:C13:1,2019-03-23T05:35:00Z,26.0630,-83.0730,57.72,1111122 
COMPS,ioos:station:USF.COMPS:C13:1,2019-03-23T06:05:00Z,26.0630,-83.0730,58.95,1111122 
COMPS,ioos:station:USF.COMPS:C13:1,2019-03-23T06:35:00Z,26.0630,-83.0730,60.49,1111122 
COMPS,ioos:station:USF.COMPS:C13:1,2019-03-23T07:05:00Z,26.0630,-83.0730,59.09,1111122 
COMPS,ioos:station:USF.COMPS:C13:1,2019-03-23T07:35:00Z,26.0630,-83.0730,60.53,1111122 
COMPS,ioos:station:USF.COMPS:C13:1,2019-03-23T08:05:00Z,26.0630,-83.0730,63.43,1111122 
COMPS,ioos:station:USF.COMPS:C13:1,2019-03-23T08:35:00Z,26.0630,-83.0730,64.06,1111122 
COMPS,ioos:station:USF.COMPS:C13:1,2019-03-23T09:05:00Z,26.0630,-83.0730,67.06,1111122 
COMPS,ioos:station:USF.COMPS:C13:1,2019-03-23T09:35:00Z,26.0630,-83.0730,65.47,1111122 
COMPS,ioos:station:USF.COMPS:C13:1,2019-03-23T10:05:00Z,26.0630,-83.0730,65.48,1111122 
COMPS,ioos:station:USF.COMPS:C13:1,2019-03-23T10:35:00Z,26.0630,-83.0730,65.44,1111122 
COMPS,ioos:station:USF.COMPS:C13:1,2019-03-23T11:05:00Z,26.0630,-83.0730,65.79,1111122 
COMPS,ioos:station:USF.COMPS:C13:1,2019-03-23T11:35:00Z,26.0630,-83.0730,66.6,1111122 
COMPS,ioos:station:USF.COMPS:C13:1,2019-03-23T12:05:00Z,26.0630,-83.0730,65.49,1111122 
COMPS,ioos:station:USF.COMPS:C13:1,2019-03-23T12:35:00Z,26.0630,-83.0730,64.57,1111122 
COMPS,ioos:station:USF.COMPS:C13:1,2019-03-23T13:05:00Z,26.0630,-83.0730,65.12,1111122 
COMPS,ioos:station:USF.COMPS:C13:1,2019-03-23T13:35:00Z,26.0630,-83.0730,65.59,1111122 